TimeEST,TemperatureF,Dew PointF,Humidity,Sea Level PressureIn,VisibilityMPH,Wind Direction,Wind SpeedMPH,Gust SpeedMPH,PrecipitationIn,Events,Conditions,WindDirDegrees,DateUTC
12:54 AM,28.0,19.9,72,30.73,10.0,Calm,Calm,-,N/A,,Clear,0,2013-11-05 05:54:00
1:54 AM,27.0,21.0,78,30.72,10.0,Calm,Calm,-,N/A,,Clear,0,2013-11-05 06:54:00
2:54 AM,26.1,21.0,81,30.73,10.0,Calm,Calm,-,N/A,,Clear,0,2013-11-05 07:54:00
3:54 AM,27.0,21.0,78,30.72,10.0,Calm,Calm,-,N/A,,Clear,0,2013-11-05 08:54:00
4:54 AM,27.0,21.0,78,30.71,10.0,Calm,Calm,-,N/A,,Clear,0,2013-11-05 09:54:00
5:54 AM,27.0,21.0,78,30.72,10.0,Calm,Calm,-,N/A,,Clear,0,2013-11-05 10:54:00
6:54 AM,28.9,21.9,75,30.73,10.0,Calm,Calm,-,N/A,,Clear,0,2013-11-05 11:54:00
7:54 AM,32.0,24.1,73,30.74,10.0,Calm,Calm,-,N/A,,Clear,0,2013-11-05 12:54:00
8:54 AM,37.9,25.0,60,30.73,10.0,Calm,Calm,-,N/A,,Clear,0,2013-11-05 13:54:00
9:54 AM,44.1,21.9,42,30.72,10.0,WSW,4.6,-,N/A,,Clear,240,2013-11-05 14:54:00
10:54 AM,46.0,24.1,42,30.70,10.0,Calm,Calm,-,N/A,,Clear,0,2013-11-05 15:54:00
11:54 AM,48.0,24.1,39,30.68,10.0,Variable,4.6,-,N/A,,Clear,0,2013-11-05 16:54:00
12:54 PM,48.9,24.1,38,30.65,10.0,Calm,Calm,-,N/A,,Clear,0,2013-11-05 17:54:00
1:54 PM,50.0,24.1,36,30.62,10.0,Calm,Calm,-,N/A,,Clear,0,2013-11-05 18:54:00
2:54 PM,51.1,25.0,36,30.60,10.0,Variable,3.5,-,N/A,,Clear,0,2013-11-05 19:54:00
3:54 PM,48.9,25.0,39,30.60,10.0,SSW,4.6,-,N/A,,Clear,210,2013-11-05 20:54:00
4:54 PM,46.0,28.0,50,30.59,10.0,SE,3.5,-,N/A,,Clear,130,2013-11-05 21:54:00
5:54 PM,44.1,30.0,58,30.59,10.0,ESE,4.6,-,N/A,,Clear,120,2013-11-05 22:54:00
6:54 PM,44.1,32.0,63,30.59,10.0,Calm,Calm,-,N/A,,Clear,0,2013-11-05 23:54:00
7:54 PM,43.0,32.0,65,30.59,10.0,Calm,Calm,-,N/A,,Clear,0,2013-11-06 00:54:00
8:54 PM,39.9,30.9,70,30.58,10.0,Calm,Calm,-,N/A,,Clear,0,2013-11-06 01:54:00
9:54 PM,41.0,30.0,65,30.56,10.0,SW,3.5,-,N/A,,Clear,220,2013-11-06 02:54:00
10:54 PM,39.9,30.0,68,30.54,10.0,SSW,5.8,-,N/A,,Clear,210,2013-11-06 03:54:00
11:54 PM,41.0,30.0,65,30.53,10.0,SSW,4.6,-,N/A,,Clear,200,2013-11-06 04:54:00